Regional Weather Roundup
Issued by NWS

Home | Current Version | Previous Version | Graphics & Text | Print | Product List | Glossary On
Versions: 1 2 3 4 5 6 7 8 9 10 11 12 13 14 15 16 17 18 19 20 21 22 23 24 25 26
000
ASUS45 KSLC 172110
RWRUT

UTAH REGIONAL WEATHER ROUNDUP
NATIONAL WEATHER SERVICE SALT LAKE CITY UT
200 PM MST SAT FEB 17 2018

UTZ001>011-023>025-172200-

NORTHERN UTAH

CITY           SKY/WX    TMP DP  RH WIND       PRES   REMARKS
BRIGHAM CITY   SUNNY     50  16  26 SW13      30.05F
HILL AFB       SUNNY     49  17  28 S18G24    30.04F
LOGAN          SUNNY     53  20  27 SW14      30.02F
OGDEN          SUNNY     51  17  26 S14       30.04F
SALT LAKE CITY MOSUNNY   55  16  21 S21G26    30.03F
TOOELE VALLEY  SUNNY     55  19  24 S21G30    30.02F
WENDOVER       SUNNY     46  15  28 VRB5      30.02F
HEBER CITY       N/A     50  14  23 SW14      30.04F
WEST JORDAN    SUNNY     49  21  33 SE21G30   30.05F

$$

UTZ011>015-024>027-172200-

CENTRAL/NORTHEAST UTAH

CITY           SKY/WX    TMP DP  RH WIND       PRES   REMARKS
PROVO AIRPORT  SUNNY     50  20  30 SE6       30.09F
MOAB/CANYONLAN SUNNY     48  22  35 S5        30.14F
DELTA          SUNNY     50  16  25 S7        30.08F
PRICE          SUNNY     43  10  26 S3        30.13F
ROOSEVELT      SUNNY     50  10  20 SE8       30.08F
VERNAL         SUNNY     45  10  24 S5        30.07F

$$

UTZ013>016-019>022-027-172200-

SOUTHERN UTAH

CITY           SKY/WX    TMP DP  RH WIND       PRES   REMARKS
BRYCE CANYON   SUNNY     46  18  32 SE14      30.17F
CEDAR CITY     SUNNY     56  21  25 SW14      30.12F
MILFORD        SUNNY     57  18  21 SW18G24   30.08F
ST GEORGE      CLEAR     53  32  44 CALM      30.17F
HANKSVILLE     SUNNY     48  16  27 CALM      30.18F
BLANDING         N/A     49  16  26 S6        30.25F

$$

REGIONAL REPORTS     COLORADO/ARIZONA

CITY           SKY/WX    TMP DP  RH WIND       PRES   REMARKS
CRAIG, CO      SUNNY     38  16  40 VRB3      30.07F
GRAND JUNCTION SUNNY     47  21  35 W5        30.15F
RIFLE, CO      SUNNY     41  13  31 CALM      30.15F
MONTROSE, CO   SUNNY     48  17  29 N6        30.16F
CORTEZ, CO     SUNNY     51  16  24 SW12      30.17F
COLORADO CITY    N/A     55  27  33 S6        30.20F
PAGE, AZ       SUNNY     50  22  33 CALM      30.16F
GRAND CANYON   SUNNY     54  12  18 SW7       30.19F
KINGMAN, AZ    SUNNY     63  21  20 VRB5      30.15F
FLAGSTAFF, AZ  SUNNY     53  16  23 VRB3      30.19F

$$

REGIONAL REPORTS    NEVADA/IDAHO/WYOMING

CITY           SKY/WX    TMP DP  RH WIND       PRES   REMARKS
LAS VEGAS, NV  MOSUNNY   62  14  15 VRB5      30.15F
ELY, NY        SUNNY     54  13  19 W8        30.08F
ELKO, NV       SUNNY     54  24  31 SW18G26   30.02F
POCATELLO, ID  PTSUNNY   50  22  33 SW22G31   29.93F
BURLEY, ID     PTSUNNY   52  20  28 W15G25    29.91F
EVANSTON, WY   SUNNY     41  13  31 SW21G35   30.01F
ROCK SPRINGS,  SUNNY     44   6  21 W36G48    29.95F

$$




USA.gov is the U.S. government's official web portal to all federal, state and local government web resources and services.